Location: Il Ritiro
(43.4167°N, 13.1333°E)
Time: 16:16:09
(UTC+00:00)

SL-24 R/B - RUBIN 2 - Pass Details

Date: 05 July 2020
Orbit: 568 x 1027 km, 64.6° (Epoch: 11 August)

Event Time Altitude Azimuth Distance (km) Brightness Sun altitude
Rises 20:15:26 0° 209° (SSW) 3,376 7.1 -12.4°
Reaches altitude 10° 20:17:46 10° 208° (SSW) 2,510 6.5 -12.7°
Maximum altitude 20:23:42 81° 122° (ESE) 960 4.4 -13.4°
Drops below altitude 10° 20:30:17 10° 36° (NE) 2,778 7.1 -14.2°
Sets 20:32:58 0° 36° (NE) 3,760 7.8 -14.5°
